Torna al catalogo

GALAXY 23

TELSTAR 13

AttivoComunicazioniGEO
NORAD 27854·PAYLOAD·🇺🇸 United States

Lanciato Aug 8, 2003 da Sea Launch Platform

Loading…

TLE

AggiornatoSource: Space-Track

Epoca: Sep 14, 2026, 13:28 UTC

1 27854U 03034A   26257.56140762 -.00000126  00000-0  00000-0 0  9999
2 27854   3.4313  78.4253 0003492 119.5851 288.6857  0.98953834 84587

Traccia GALAXY 23 in tempo reale con AllMySat

Download on the App Store